User: anonymous   Login
Location: Unspecified
(0.0000°N, 0.0000°E)
Time: 06:53:34
(UTC+00:00)
Language:

DOVE 4 - Orbit

View from above orbital plane
View from above orbital plane
View from above satellite
View from above satellite

Ground track
Ground track

The orbit data is extracted from the following two-line orbital elements,

1 39430U 13066Q   19113.80709968  .00000180  00000-0  41157-4 0  9998
2 39430  97.7407  74.0609 0152892  70.5089 291.2565 14.59224759288452
Epoch (UTC): 23 April 2019 19:22:13
Eccentricity: 0.0152892
inclination: 97.7407°
perigee height: 587 km
apogee height: 804 km
right ascension of ascending node: 74.0609°
argument of perigee: 70.5089°
revolutions per day: 14.59224759
mean anomaly at epoch: 291.2565°
orbit number at epoch: 28845

The dashed part of the orbit path shows where the satellite is in the earth's shadow,  

DLR